DELTA 1 DEB, 10201

Orbit data source: Space-Track

DELTA 1 DEB, 10201 is space debris in LEO originally from a launch on Thu, 14 Jul 1977 UTC launched from the Air Force Eastern Test Range (AFETR). Debris objects in space refer to the collection of defunct objects orbiting the Earth. Examples of debris include non-operational satellites, rocket bodies, and fragments generated from explosions, collisions, or faulty payload assembly.

Loading next visibility...
Identifier
10201, 1977-065AE
Orbit
LEO
Last TLE update
9 hours ago
Origin
Manufacturer
Unknown
Mission
Spacecraft
Bus & Motor
Unknown
Mass
Unknown
Launch date (UTC)
1977-07-14 (48 years ago)
Launch vehicle
Unknown
Launch site
Air Force Eastern Test Range (AFETR)
Object type
Payload
Rocket body
Debris
Shape & HBR
Unknown
Radar Cross Section
Medium (>0.1 m² and <1 m²)

Expand to show TLE details & history

TLE from 9 hours ago
0 DELTA 1 DEB
1 10201U 77065AE  25182.04894534  .00002338  00000-0  43427-3 0  9993
2 10201  29.0879  86.5918 0670986   9.0817 352.1245 13.73430011360171
Epoch: 2025-07-01T01:10Z
TLE epoch observation values (Epoch: 2025-07-01T01:10:28.877Z)
Latitude
-0.00002°
Longitude
149.62146°
Altitude
496.966 km
Speed
7.867 km/s
True Right ascension
05h 46m 22s
True Declination
0° 00' 00"
Sunlit
Object was in daylight at epoch
Visualization orbit readout
Latitude
16.8998°
Longitude
-65.3749°
Altitude
1,289.436 km
Speed
7.065 km/s
Apparent Right ascension
13h 26m 13s
Apparent Declination
-10° 56' 14"
Sunlit
Object is in daylight
Visualization observer readout
Local Sidereal Time
22:11:52
Azimuth
290.223° WNW
Elevation
-38.309°
Doppler factor
1
Orbital elements
Apogee altitude
1,485.645 km
Perigee altitude
496.704 km
Semi-major axis
7,369.311 km
Eccentricity
0.0671
Inclination
29.0879°
RAAN
86.5918°
Arg. of periapsis
9.0817°
True anomaly
Unknown
Mean anomaly
352.1245°
Eccentric anomaly
Unknown
Mean motion
3.43086 °/min
Orbital period
104.93 mins
BSTAR
0.00043427
Loading maneuver chart data...
Loading SW <> Apogee altitude chart data...
Loading historical data...
Loading historical data...
Loading historical data...
Loading historical data...
Loading historical data...
Loading historical data...
Loading historical data...

DELTA 1 DEB Visibility forecast

Observer location: undefined°, undefined°

Span
Click to sort rows by Start time (UTC) header in descending order
Start Az.
Max El. time (UTC)
Max El. Az.
Max El.
End time (UTC)
End Az.
6 mins2025-07-01 22:23:24.834Z205.549° SW2025-07-01 22:26:24.834Z160.739° S18.913°2025-07-01 22:29:24.834Z123.916° SE
8 mins2025-07-02 00:13:24.834Z228.392° WSW2025-07-02 00:16:24.834Z186.372° SSW24.879°2025-07-02 00:21:24.834Z128.23° SE
9 mins2025-07-02 02:04:24.834Z231.442° WSW2025-07-02 02:07:24.834Z198.231° SSW20.732°2025-07-02 02:13:24.834Z146.244° SSE
|